| time (UTC) | temp C | wind direction | speed KPH | gust KPH | rain 1hr cm | rain 24hr cm | rain mn cm | humidity % | barometer mb |
| 20260904172517 | 15 | 242 | 0.0 | 0.0 | 0.00 | 0.03 | 0.03 | 80 | 1013.3 |
| 20260904171517 | 15 | 248 | 1.6 | 4.8 | 0.00 | 0.03 | 0.03 | 86 | 1013.3 |
| 20260904170517 | 14 | 248 | 1.6 | 4.8 | 0.00 | 0.03 | 0.03 | 87 | 1013.3 |
| 20260904165516 | 13 | 242 | 0.0 | 0.0 | 0.00 | 0.03 | 0.03 | 94 | 1013.3 |
| 20260904164516 | 13 | 242 | 0.0 | 0.0 | 0.00 | 0.03 | 0.03 | 97 | 1013.3 |
| 20260904163516 | 12 | 242 | 0.0 | 0.0 | 0.00 | 0.03 | 0.03 | 98 | 1013.3 |
| 20260904162516 | 12 | 248 | 0.0 | 1.6 | 0.00 | 0.03 | 0.03 | 99 | 1013.3 |
| 20260904161516 | 12 | 242 | 0.0 | 0.0 | 0.00 | 0.03 | 0.03 | 99 | 1013.3 |
| 20260904160516 | 12 | 242 | 0.0 | 0.0 | 0.03 | 0.03 | 0.03 | 99 | 1013.2 |
| 20260904155516 | 12 | 242 | 0.0 | 0.0 | 0.03 | 0.03 | 0.03 | 99 | 1013.0 |
| 20260904154536 | 11 | 242 | 0.0 | 0.0 | 0.03 | 0.03 | 0.03 | 99 | 1013.0 |
| 20260904153516 | 11 | 242 | 0.0 | 0.0 | 0.03 | 0.03 | 0.03 | 99 | 1012.8 |
| 20260904152516 | 11 | 242 | 0.0 | 0.0 | 0.03 | 0.03 | 0.03 | 99 | 1012.8 |
| 20260904151516 | 10 | 242 | 0.0 | 0.0 | 0.03 | 0.03 | 0.03 | 98 | 1012.8 |
| 20260904150536 | 10 | 248 | 0.0 | 1.6 | 0.00 | 0.00 | 0.00 | 98 | 1012.5 |
| 20260904145516 | 10 | 242 | 0.0 | 0.0 | 0.00 | 0.00 | 0.00 | 98 | 1012.7 |
| 20260904144516 | 10 | 242 | 0.0 | 0.0 | 0.00 | 0.00 | 0.00 | 98 | 1012.7 |
| 20260904143536 | 10 | 242 | 0.0 | 0.0 | 0.00 | 0.00 | 0.00 | 98 | 1012.7 |
| 20260904142518 | 10 | 242 | 0.0 | 0.0 | 0.00 | 0.00 | 0.00 | 98 | 1012.5 |
| 20260904141516 | 10 | 242 | 0.0 | 0.0 | 0.00 | 0.00 | 0.00 | 98 | 1012.5 |
| 20260904140516 | 10 | 242 | 0.0 | 0.0 | 0.00 | 0.00 | 0.00 | 98 | 1012.3 |
| 20260904135516 | 10 | 242 | 0.0 | 0.0 | 0.00 | 0.00 | 0.00 | 98 | 1011.9 |
| 20260904134516 | 10 | 242 | 0.0 | 0.0 | 0.00 | 0.00 | 0.00 | 98 | 1011.9 |
| 20260904133516 | 10 | 242 | 0.0 | 0.0 | 0.00 | 0.00 | 0.00 | 98 | 1011.7 |
| 20260904132516 | 10 | 248 | 0.0 | 3.2 | 0.00 | 0.00 | 0.00 | 98 | 1011.6 |
| 20260904131536 | 10 | 242 | 0.0 | 0.0 | 0.00 | 0.00 | 0.00 | 98 | 1011.6 |
| 20260904130536 | 10 | 242 | 0.0 | 0.0 | 0.00 | 0.00 | 0.00 | 98 | 1011.3 |
| 20260904125516 | 10 | 242 | 0.0 | 0.0 | 0.00 | 0.00 | 0.00 | 98 | 1011.3 |
| 20260904124516 | 10 | 242 | 0.0 | 0.0 | 0.00 | 0.00 | 0.00 | 97 | 1011.3 |
| 20260904123536 | 10 | 242 | 0.0 | 0.0 | 0.00 | 0.00 | 0.00 | 98 | 1011.2 |
| 20260904122516 | 10 | 242 | 0.0 | 0.0 | 0.00 | 0.00 | 0.00 | 98 | 1011.2 |
| 20260904121516 | 10 | 242 | 0.0 | 0.0 | 0.00 | 0.00 | 0.00 | 97 | 1011.2 |
| 20260904120516 | 10 | 242 | 0.0 | 0.0 | 0.00 | 0.00 | 0.00 | 97 | 1011.2 |
| 20260904115516 | 10 | 242 | 0.0 | 0.0 | 0.00 | 0.00 | 0.00 | 97 | 1011.1 |
| 20260904114536 | 9 | 242 | 0.0 | 0.0 | 0.00 | 0.00 | 0.00 | 97 | 1011.1 |
| 20260904113516 | 9 | 242 | 0.0 | 0.0 | 0.00 | 0.00 | 0.00 | 97 | 1010.9 |
| 20260904112536 | 9 | 242 | 0.0 | 0.0 | 0.00 | 0.00 | 0.00 | 97 | 1010.8 |
| 20260904111516 | 9 | 242 | 0.0 | 0.0 | 0.00 | 0.00 | 0.00 | 97 | 1010.8 |
| 20260904110516 | 9 | 242 | 0.0 | 0.0 | 0.00 | 0.00 | 0.00 | 97 | 1010.8 |
| 20260904105516 | 9 | 248 | 0.0 | 1.6 | 0.00 | 0.00 | 0.00 | 97 | 1010.6 |
| 20260904104516 | 9 | 242 | 0.0 | 0.0 | 0.00 | 0.00 | 0.00 | 97 | 1010.6 |
| 20260904103516 | 8 | 242 | 0.0 | 0.0 | 0.00 | 0.00 | 0.00 | 97 | 1010.5 |
| 20260904102516 | 8 | 242 | 0.0 | 0.0 | 0.00 | 0.00 | 0.00 | 97 | 1010.4 |
| 20260904101515 | 8 | 242 | 0.0 | 0.0 | 0.00 | 0.00 | 0.00 | 97 | 1010.4 |
| 20260904100516 | 8 | 242 | 0.0 | 0.0 | 0.00 | 0.00 | 0.00 | 96 | 1010.2 |
| 20260904095515 | 8 | 242 | 0.0 | 0.0 | 0.00 | 0.00 | 0.00 | 96 | 1010.1 |
| 20260904094516 | 8 | 242 | 0.0 | 0.0 | 0.00 | 0.00 | 0.00 | 96 | 1010.1 |
| 20260904093535 | 8 | 242 | 0.0 | 0.0 | 0.00 | 0.00 | 0.00 | 96 | 1010.3 |
| 20260904092515 | 8 | 242 | 0.0 | 0.0 | 0.00 | 0.00 | 0.00 | 96 | 1010.5 |
| 20260904091515 | 8 | 242 | 0.0 | 0.0 | 0.00 | 0.00 | 0.00 | 96 | 1010.5 |
| 20260904090515 | 8 | 242 | 0.0 | 0.0 | 0.00 | 0.00 | 0.00 | 96 | 1010.6 |
| 20260904085515 | 8 | 242 | 0.0 | 0.0 | 0.00 | 0.00 | 0.00 | 96 | 1010.6 |
| 20260904084515 | 8 | 242 | 0.0 | 0.0 | 0.00 | 0.00 | 0.00 | 96 | 1010.6 |
| 20260904083535 | 8 | 242 | 0.0 | 0.0 | 0.00 | 0.00 | 0.00 | 96 | 1010.6 |
| 20260904082615 | 8 | 242 | 0.0 | 0.0 | 0.00 | 0.00 | 0.00 | 95 | 1010.7 |
| 20260904081536 | 8 | 242 | 0.0 | 0.0 | 0.00 | 0.00 | 0.00 | 95 | 1010.7 |
| 20260904080515 | 8 | 242 | 0.0 | 0.0 | 0.00 | 0.00 | 0.00 | 95 | 1010.7 |
| 20260904075515 | 8 | 242 | 0.0 | 0.0 | 0.00 | 0.00 | 0.00 | 95 | 1010.7 |
| 20260904074515 | 8 | 242 | 0.0 | 0.0 | 0.00 | 0.00 | 0.00 | 95 | 1010.7 |
| 20260904073515 | 8 | 242 | 0.0 | 0.0 | 0.00 | 0.00 | 0.00 | 95 | 1010.7 |
| 20260904072515 | 8 | 242 | 0.0 | 0.0 | 0.00 | 0.00 | 0.00 | 95 | 1010.7 |
| 20260904071515 | 8 | 242 | 0.0 | 0.0 | 0.00 | 0.00 | 0.00 | 95 | 1010.7 |
| 20260904070515 | 9 | 242 | 0.0 | 0.0 | 0.00 | 0.00 | 0.00 | 94 | 1010.6 |
| 20260904065517 | 9 | 242 | 0.0 | 0.0 | 0.00 | 0.00 | 0.00 | 94 | 1010.5 |
| 20260904064517 | 9 | 242 | 0.0 | 0.0 | 0.00 | 0.00 | 0.00 | 94 | 1010.5 |
| 20260904063517 | 9 | 242 | 0.0 | 0.0 | 0.00 | 0.00 | 0.00 | 93 | 1010.4 |
| 20260904062517 | 9 | 242 | 0.0 | 0.0 | 0.00 | 0.00 | 0.00 | 93 | 1010.2 |
| 20260904061517 | 9 | 242 | 0.0 | 0.0 | 0.00 | 0.00 | 0.00 | 93 | 1010.2 |
| 20260904060517 | 9 | 242 | 0.0 | 0.0 | 0.00 | 0.00 | 0.00 | 93 | 1010.1 |
| 20260904055517 | 10 | 242 | 0.0 | 0.0 | 0.00 | 0.00 | 0.00 | 93 | 1010.1 |
| 20260904054517 | 10 | 242 | 0.0 | 0.0 | 0.00 | 0.00 | 0.00 | 92 | 1010.1 |
| 20260904053517 | 10 | 242 | 0.0 | 0.0 | 0.00 | 0.00 | 0.00 | 92 | 1010.2 |
| 20260904052537 | 10 | 242 | 0.0 | 0.0 | 0.00 | 0.00 | 0.00 | 92 | 1010.2 |
| 20260904051517 | 10 | 242 | 0.0 | 0.0 | 0.00 | 0.00 | 0.00 | 92 | 1010.2 |
| 20260904050537 | 10 | 242 | 0.0 | 0.0 | 0.00 | 0.00 | 0.00 | 92 | 1010.2 |
| 20260904045537 | 10 | 242 | 0.0 | 0.0 | 0.00 | 0.00 | 0.00 | 92 | 1010.2 |
| 20260904044517 | 10 | 242 | 0.0 | 0.0 | 0.00 | 0.00 | 0.00 | 91 | 1010.2 |
| 20260904043516 | 10 | 242 | 0.0 | 0.0 | 0.00 | 0.00 | 0.00 | 91 | 1010.3 |
| 20260904042517 | 11 | 242 | 0.0 | 0.0 | 0.00 | 0.00 | 0.00 | 90 | 1010.3 |
| 20260904041517 | 11 | 242 | 0.0 | 0.0 | 0.00 | 0.00 | 0.00 | 90 | 1010.3 |
| 20260904040537 | 11 | 242 | 0.0 | 0.0 | 0.00 | 0.00 | 0.00 | 89 | 1010.3 |
| 20260904035536 | 11 | 242 | 0.0 | 0.0 | 0.00 | 0.00 | 0.00 | 88 | 1010.1 |
| 20260904034516 | 11 | 242 | 0.0 | 0.0 | 0.00 | 0.00 | 0.00 | 88 | 1010.1 |
| 20260904033518 | 11 | 242 | 0.0 | 0.0 | 0.00 | 0.00 | 0.00 | 88 | 1010.0 |
| 20260904032521 | 12 | 242 | 0.0 | 0.0 | 0.00 | 0.00 | 0.00 | 87 | 1009.7 |
| 20260904031537 | 12 | 242 | 0.0 | 0.0 | 0.00 | 0.00 | 0.00 | 87 | 1009.7 |
| 20260904030517 | 12 | 242 | 0.0 | 0.0 | 0.00 | 0.00 | 0.00 | 86 | 1009.6 |
| 20260904025516 | 13 | 242 | 0.0 | 0.0 | 0.00 | 0.00 | 0.00 | 84 | 1009.6 |
| 20260904024517 | 13 | 242 | 0.0 | 0.0 | 0.00 | 0.00 | 0.00 | 84 | 1009.6 |
| 20260904023517 | 13 | 242 | 0.0 | 0.0 | 0.00 | 0.00 | 0.00 | 82 | 1009.5 |
| 20260904022516 | 14 | 242 | 0.0 | 0.0 | 0.00 | 0.00 | 0.00 | 81 | 1009.3 |
| 20260904021516 | 14 | 242 | 0.0 | 0.0 | 0.00 | 0.00 | 0.00 | 79 | 1009.3 |
| 20260904020516 | 15 | 242 | 0.0 | 0.0 | 0.00 | 0.00 | 0.00 | 78 | 1009.3 |
| 20260904015516 | 15 | 248 | 0.0 | 4.8 | 0.00 | 0.00 | 0.00 | 77 | 1009.3 |
| 20260904014537 | 15 | 248 | 1.6 | 6.4 | 0.00 | 0.00 | 0.00 | 75 | 1009.3 |
| 20260904013516 | 15 | 248 | 3.2 | 8.0 | 0.00 | 0.00 | 0.00 | 74 | 1009.1 |
| 20260904012516 | 16 | 248 | 1.6 | 8.0 | 0.00 | 0.00 | 0.00 | 73 | 1009.0 |
| 20260904011516 | 16 | 248 | 0.0 | 6.4 | 0.00 | 0.00 | 0.00 | 71 | 1009.0 |
| 20260904010516 | 16 | 248 | 1.6 | 6.4 | 0.00 | 0.00 | 0.00 | 70 | 1008.9 |
| 20260904005516 | 17 | 248 | 1.6 | 9.7 | 0.00 | 0.00 | 0.00 | 69 | 1008.8 |
| 20260904004536 | 17 | 248 | 1.6 | 6.4 | 0.00 | 0.00 | 0.00 | 69 | 1008.8 |
| 20260904003516 | 17 | 248 | 0.0 | 4.8 | 0.00 | 0.00 | 0.00 | 68 | 1008.9 |
| 20260904002516 | 17 | 248 | 0.0 | 1.6 | 0.00 | 0.00 | 0.00 | 66 | 1008.8 |
| 20260904001516 | 17 | 248 | 0.0 | 1.6 | 0.00 | 0.00 | 0.00 | 67 | 1008.8 |
| 20260904000516 | 17 | 248 | 0.0 | 1.6 | 0.00 | 0.00 | 0.00 | 67 | 1009.0 |
| 20260903235516 | 16 | 248 | 0.0 | 1.6 | 0.00 | 0.00 | 0.00 | 66 | 1009.1 |
| 20260903234516 | 16 | 248 | 0.0 | 3.2 | 0.00 | 0.03 | 0.00 | 65 | 1009.1 |
| 20260903233516 | 16 | 248 | 0.0 | 3.2 | 0.00 | 0.03 | 0.00 | 66 | 1009.1 |
| 20260903232516 | 17 | 248 | 1.6 | 4.8 | 0.00 | 0.03 | 0.00 | 66 | 1009.1 |
| 20260903231516 | 17 | 248 | 0.0 | 1.6 | 0.00 | 0.03 | 0.00 | 70 | 1009.1 |
| 20260903230516 | 16 | 248 | 1.6 | 6.4 | 0.00 | 0.03 | 0.00 | 69 | 1009.1 |
| 20260903225516 | 16 | 248 | 1.6 | 8.0 | 0.00 | 0.03 | 0.00 | 73 | 1009.3 |
| 20260903224516 | 16 | 248 | 1.6 | 6.4 | 0.00 | 0.03 | 0.00 | 74 | 1009.3 |
| 20260903223516 | 15 | 270 | 1.6 | 4.8 | 0.00 | 0.03 | 0.00 | 75 | 1009.4 |
| 20260903222536 | 15 | 270 | 0.0 | 1.6 | 0.00 | 0.03 | 0.00 | 76 | 1009.5 |
| 20260903221516 | 15 | 270 | 1.6 | 6.4 | 0.00 | 0.03 | 0.00 | 76 | 1009.5 |
| 20260903220516 | 15 | 270 | 1.6 | 6.4 | 0.00 | 0.03 | 0.00 | 82 | 1009.6 |
| 20260903215516 | 14 | 270 | 0.0 | 4.8 | 0.00 | 0.03 | 0.00 | 83 | 1009.6 |
| 20260903214516 | 14 | 270 | 1.6 | 4.8 | 0.00 | 0.03 | 0.00 | 84 | 1009.6 |
| 20260903213516 | 14 | 270 | 4.8 | 8.0 | 0.00 | 0.03 | 0.00 | 84 | 1009.5 |
| 20260903212536 | 14 | 270 | 4.8 | 9.7 | 0.00 | 0.03 | 0.00 | 84 | 1009.3 |
| 20260903211516 | 15 | 293 | 1.6 | 6.4 | 0.00 | 0.03 | 0.00 | 83 | 1009.3 |
| 20260903210515 | 15 | 294 | 0.0 | 0.0 | 0.00 | 0.03 | 0.00 | 83 | 1009.2 |
| 20260903205516 | 15 | 293 | 0.0 | 1.6 | 0.00 | 0.03 | 0.00 | 81 | 1009.1 |
| 20260903204516 | 15 | 293 | 0.0 | 4.8 | 0.00 | 0.03 | 0.00 | 79 | 1009.1 |
| 20260903203536 | 15 | 293 | 0.0 | 4.8 | 0.00 | 0.03 | 0.00 | 76 | 1009.0 |
| 20260903202515 | 16 | 293 | 1.6 | 8.0 | 0.00 | 0.03 | 0.00 | 74 | 1008.8 |
| 20260903201536 | 16 | 293 | 1.6 | 8.0 | 0.00 | 0.03 | 0.00 | 74 | 1008.8 |
| 20260903200536 | 16 | 23 | 0.0 | 4.8 | 0.00 | 0.03 | 0.00 | 71 | 1008.7 |
| 20260903195516 | 16 | 23 | 1.6 | 6.4 | 0.00 | 0.03 | 0.00 | 71 | 1008.5 |
| 20260903194515 | 16 | 23 | 0.0 | 1.6 | 0.00 | 0.03 | 0.00 | 71 | 1008.5 |
| 20260903193515 | 16 | 23 | 0.0 | 6.4 | 0.00 | 0.03 | 0.00 | 71 | 1008.3 |
| 20260903192515 | 17 | 23 | 0.0 | 4.8 | 0.00 | 0.03 | 0.00 | 71 | 1008.1 |
| 20260903191515 | 17 | 23 | 0.0 | 3.2 | 0.00 | 0.03 | 0.00 | 69 | 1008.1 |
| 20260903190515 | 17 | 68 | 1.6 | 4.8 | 0.00 | 0.03 | 0.00 | 67 | 1008.0 |
| 20260903185515 | 17 | 68 | 1.6 | 4.8 | 0.00 | 0.03 | 0.00 | 65 | 1007.9 |
| 20260903184515 | 18 | 68 | 1.6 | 8.0 | 0.00 | 0.03 | 0.00 | 65 | 1007.9 |
| 20260903183515 | 18 | 68 | 1.6 | 11.3 | 0.00 | 0.03 | 0.00 | 65 | 1007.7 |
| 20260903182515 | 17 | 180 | 0.0 | 4.8 | 0.00 | 0.03 | 0.00 | 65 | 1007.6 |
| 20260903181521 | 17 | 180 | 1.6 | 8.0 | 0.00 | 0.03 | 0.00 | 69 | 1007.6 |
| 20260903180515 | 16 | 203 | 1.6 | 9.7 | 0.00 | 0.03 | 0.00 | 70 | 1007.5 |
| 20260903175515 | 16 | 158 | 3.2 | 11.3 | 0.00 | 0.03 | 0.00 | 70 | 1007.4 |
| 20260903174538 | 16 | 225 | 4.8 | 12.9 | 0.00 | 0.03 | 0.00 | 70 | 1007.4 |
| 20260903173517 | 16 | 225 | 3.2 | 9.7 | 0.00 | 0.03 | 0.00 | 70 | 1007.2 |